Weather History for Volkel, Netherlands

Change the Weather History Date:

Saturday, April 5, 2014

  Actual Average Record
Temperature  
Mean Temperature 55 °F -  
Max Temperature 64 °F 57 °F 64 °F (2014)
Min Temperature 44 °F 40 °F 28 °F (2006)
Degree Days  
Heating Degree Days 10    
Growing Degree Days 5 (Base 50)    
Moisture  
Dew Point 48 °F    
Average Humidity 80    
Maximum Humidity 94    
Minimum Humidity 43    
Precipitation  
Precipitation 0.00 in - - ()
Sea Level Pressure  
Sea Level Pressure 29.95 in    
Wind  
Wind Speed 3 mph ()    
Max Wind Speed 7 mph    
Max Gust Speed -    
Visibility 4.6 miles    
Events Rain    
Averages and records for this station are not official NWS values.
T = Trace of Precipitation, MM = Missing Value Source: Averaged Metar Reports

Daily Weather History Graph

Daily Weather History Graph

Search for Another Location

Airport:

Trip Planner

Search our weather history database for the weather conditions in past years. The results will help you decide how hot, cold, wet, or windy it might be!

Date:

Astronomy

Apr. 05, 2014 Rise Set
Actual Time 7:03 AM CEST 8:17 PM CEST
Civil Twilight 6:29 AM CEST 8:51 PM CEST
Nautical Twilight 5:47 AM CEST 9:33 PM CEST
Astronomical Twilight 5:02 AM CEST 10:19 PM CEST
Moon 10:32 AM CEST (4/5) 1:39 AM CEST (4/5)
Length of Visible Light 14h 22m
Length of Day
13h 13m
Waxing Crescent, 32% of the Moon is Illuminated
Apr 5
Waxing Crescent
Apr 7
First Quarter
Apr 15
Full
Apr 22
Last Quarter
Apr 29
New

Hourly Weather History & Observations

Time (CEST) Temp. Dew Point Humidity Pressure Visibility Wind Dir Wind Speed Gust Speed Precip Events Conditions
12:00 AM 54 °F 49 °F 77% 29.90 in 3 mi WNW 2.2 mph - -   Mist
12:20 AM 53.6 °F 48.2 °F 82% 29.89 in 3.1 mi North 1.2 mph - N/A   Overcast
12:25 AM 51.8 °F 48.2 °F 88% 29.89 in 3.1 mi North 1.2 mph - N/A   Overcast
12:42 AM 51.8 °F 48.2 °F 88% 29.89 in 3.1 mi WNW 2.3 mph - N/A   Overcast
12:46 AM 51.8 °F 48.2 °F 88% 29.89 in 3.1 mi WNW 2.3 mph - N/A   Overcast
12:55 AM 53.6 °F 48.2 °F 82% 29.89 in 3.1 mi West 2.3 mph - N/A   Overcast
1:00 AM 53 °F 49 °F 80% 29.90 in 3 mi West 2.2 mph - -   Mist
1:25 AM 51.8 °F 48.2 °F 88% 29.89 in 3.1 mi West 3.5 mph - N/A   Mostly Cloudy
1:40 AM 51.8 °F 48.2 °F 88% 29.89 in - West 3.5 mph - N/A   Mostly Cloudy
1:48 AM 51.8 °F 48.2 °F 88% 29.89 in 3.1 mi West 3.5 mph - N/A   Overcast
1:55 AM 51.8 °F 48.2 °F 88% 29.89 in 3.1 mi West 3.5 mph - N/A   Mostly Cloudy
2:00 AM 53 °F 48 °F 78% 29.91 in 3 mi West 4.5 mph - -   Mist
2:08 AM 51.8 °F 48.2 °F 88% 29.89 in 3.1 mi West 3.5 mph - N/A   Mostly Cloudy
2:25 AM 51.8 °F 48.2 °F 88% 29.89 in 3.1 mi West 3.5 mph - N/A   Overcast
2:30 AM 51.8 °F 48.2 °F 88% 29.89 in - West 3.5 mph - N/A   Overcast
2:55 AM 51.8 °F 48.2 °F 88% 29.89 in - WSW 2.3 mph - N/A   Mostly Cloudy
3:00 AM 51 °F 48 °F 86% 29.91 in 3 mi WSW 2.2 mph - -   Mist
3:25 AM 50.0 °F 48.2 °F 94% 29.89 in - WSW 2.3 mph - N/A Rain Light Rain
3:55 AM 51.8 °F 48.2 °F 88% 29.89 in - WSW 2.3 mph - N/A   Mostly Cloudy
3:57 AM 51.8 °F 48.2 °F 88% 29.89 in - West 2.3 mph - N/A   Mostly Cloudy
4:00 AM 51 °F 49 °F 88% 29.91 in 2 mi West 2.2 mph - - Rain Rain
4:07 AM 50.0 °F 48.2 °F 94% 29.89 in 2.2 mi West 2.3 mph - N/A   Mostly Cloudy
4:18 AM 50.0 °F 48.2 °F 94% 29.89 in - SW 2.3 mph - N/A   Overcast
4:25 AM 50.0 °F 48.2 °F 94% 29.89 in - SW 3.5 mph - N/A   Mostly Cloudy
4:26 AM 50.0 °F 48.2 °F 94% 29.89 in - SW 3.5 mph - N/A   Mostly Cloudy
4:48 AM 50.0 °F 48.2 °F 94% 29.89 in 2.5 mi WSW 5.8 mph - N/A   Overcast
4:55 AM 51.8 °F 48.2 °F 88% 29.89 in 3.1 mi WSW 5.8 mph - N/A   Overcast
5:00 AM 51 °F 48 °F 86% 29.92 in 3 mi West 6.7 mph - - Rain Light Rain
5:08 AM 51.8 °F 48.2 °F 88% 29.89 in 3.1 mi West 5.8 mph - N/A   Drizzle
5:25 AM 50.0 °F 48.2 °F 94% 29.92 in 3.1 mi West 4.6 mph - N/A   Light Drizzle
5:55 AM 50.0 °F 48.2 °F 94% 29.92 in 4.3 mi West 4.6 mph - N/A   Mostly Cloudy
6:00 AM 50 °F 48 °F 89% 29.92 in 4 mi West 4.5 mph - - Rain Light Drizzle
6:25 AM 50.0 °F 48.2 °F 94% 29.92 in 4.3 mi West 3.5 mph - N/A   Light Drizzle
6:55 AM 50.0 °F 48.2 °F 94% 29.92 in 3.1 mi WSW 4.6 mph - N/A   Drizzle
7:00 AM 49 °F 47 °F 92% 29.93 in 3 mi WSW 4.5 mph - - Rain Drizzle
7:01 AM 50.0 °F 48.2 °F 94% 29.92 in - WSW 4.6 mph - N/A   Light Drizzle
7:19 AM 50.0 °F 48.2 °F 94% 29.92 in - WSW 4.6 mph - N/A   Mostly Cloudy
7:25 AM 50.0 °F 48.2 °F 94% 29.92 in - WSW 3.5 mph - N/A   Overcast
7:55 AM 50.0 °F 48.2 °F 94% 29.95 in 2.8 mi SW 3.5 mph - N/A   Overcast
8:00 AM 50 °F 48 °F 92% 29.96 in 3 mi SW 4.5 mph - - Rain Rain
8:25 AM 50.0 °F 48.2 °F 94% 29.95 in - SW 3.5 mph - N/A   Overcast
8:40 AM 50.0 °F 48.2 °F 94% 29.95 in 3.1 mi SW 3.5 mph - N/A   Overcast
8:45 AM 50.0 °F 48.2 °F 94% 29.95 in - SW 3.5 mph - N/A   Overcast
8:55 AM 50.0 °F 48.2 °F 94% 29.95 in 3.1 mi SW 3.5 mph - N/A   Overcast
8:59 AM 50.0 °F 48.2 °F 94% 29.95 in - SW 3.5 mph - N/A   Overcast
9:00 AM 51 °F 48 °F 87% 29.96 in 3 mi SW 4.5 mph - -   Mist
9:04 AM 50.0 °F 48.2 °F 94% 29.95 in 3.1 mi SW 4.6 mph - N/A   Overcast
9:05 AM 50.0 °F 48.2 °F 94% 29.95 in 3.1 mi SW 4.6 mph - N/A   Mostly Cloudy
9:21 AM 51.8 °F 48.2 °F 88% 29.95 in 3.7 mi SW 4.6 mph - N/A   Mostly Cloudy
9:25 AM 51.8 °F 48.2 °F 88% 29.95 in 3.7 mi SW 5.8 mph - N/A   Scattered Clouds
9:34 AM 51.8 °F 48.2 °F 88% 29.95 in 3.7 mi WSW 6.9 mph - N/A   Mostly Cloudy
9:38 AM 51.8 °F 48.2 °F 88% 29.95 in 3.7 mi SW 6.9 mph - N/A   Mostly Cloudy
9:43 AM 51.8 °F 48.2 °F 88% 29.95 in 3.7 mi SW 6.9 mph - N/A   Mostly Cloudy
9:47 AM 51.8 °F 48.2 °F 88% 29.95 in 3.7 mi SW 6.9 mph - N/A   Mostly Cloudy
9:48 AM 51.8 °F 48.2 °F 88% 29.95 in 3.7 mi WSW 5.8 mph - N/A   Mostly Cloudy
9:55 AM 51.8 °F 48.2 °F 88% 29.95 in 3.7 mi WSW 5.8 mph - N/A   Scattered Clouds
10:00 AM 52 °F 48 °F 82% 29.97 in 4 mi SW 4.5 mph - -   Mist
10:25 AM 51.8 °F 48.2 °F 88% 29.98 in 4.3 mi WSW 4.6 mph - N/A   Scattered Clouds
10:55 AM 53.6 °F 48.2 °F 82% 29.98 in 4.3 mi SW 5.8 mph - N/A   Scattered Clouds
11:00 AM 53 °F 49 °F 80% 29.99 in 4 mi WSW 6.7 mph - -   Mist
11:04 AM 53.6 °F 48.2 °F 82% 29.98 in 5.0 mi WSW 5.8 mph - N/A   Mostly Cloudy
11:20 AM 53.6 °F 48.2 °F 82% 29.98 in 5.0 mi SW 5.8 mph - N/A   Partly Cloudy
11:25 AM 53.6 °F 48.2 °F 82% 29.98 in 5.0 mi SW 5.8 mph - N/A   Partly Cloudy
11:55 AM 55.4 °F 48.2 °F 77% 29.98 in 6.2 mi WSW 5.8 mph - N/A   Unknown
12:00 PM 55 °F 49 °F 75% 30.00 in 6 mi SW 4.5 mph - -   Scattered Clouds
12:25 PM 55.4 °F 50.0 °F 82% 29.98 in 6.2 mi SW 5.8 mph - N/A   Mostly Cloudy
12:55 PM 57.2 °F 50.0 °F 77% 29.98 in 5.6 mi SW 5.8 mph - N/A   Mostly Cloudy
1:00 PM 57 °F 50 °F 71% 30.01 in 6 mi WSW 6.7 mph - -   Scattered Clouds
1:01 PM 57.2 °F 50.0 °F 77% 29.98 in 5.6 mi WSW 5.8 mph - N/A   Haze
1:07 PM 57.2 °F 50.0 °F 77% 29.98 in 6.2 mi WSW 5.8 mph - N/A   Mostly Cloudy
1:12 PM 57.2 °F 50.0 °F 77% 29.98 in 6.2 mi WSW 5.8 mph - N/A   Mostly Cloudy
1:25 PM 59.0 °F 50.0 °F 72% 29.98 in 6.2 mi SW 5.8 mph - N/A   Scattered Clouds
1:29 PM 59.0 °F 50.0 °F 72% 29.98 in 5.6 mi SSW 5.8 mph - N/A   Haze
1:55 PM 59.0 °F 50.0 °F 72% 29.98 in 6.2 mi WSW 5.8 mph - N/A   Mostly Cloudy
2:00 PM 59 °F 48 °F 58% 30.00 in 6 mi WSW 4.5 mph - -   Partly Cloudy
2:00 PM 59.0 °F 50.0 °F 72% 29.98 in 6.2 mi WSW 5.8 mph - N/A   Scattered Clouds
2:25 PM 60.8 °F 50.0 °F 68% 29.98 in 5.6 mi SW 5.8 mph - N/A   Haze
2:55 PM 60.8 °F 48.2 °F 63% 29.98 in 6.2 mi WSW 5.8 mph - N/A   Mostly Cloudy
3:00 PM 61 °F 49 °F 54% 30.00 in 6 mi SW 4.5 mph - -   Scattered Clouds
3:25 PM 60.8 °F 48.2 °F 63% 29.98 in 6.2 mi West 3.5 mph - N/A   Mostly Cloudy
3:55 PM 62.6 °F 50.0 °F 63% 29.98 in 5.6 mi SSW 5.8 mph - N/A   Haze
4:00 PM 62 °F 49 °F 51% 29.99 in 6 mi SW 6.7 mph - -   Scattered Clouds
4:25 PM 64.4 °F 48.2 °F 56% 29.98 in 6.2 mi WSW 4.6 mph - N/A   Overcast
4:55 PM 62.6 °F 46.4 °F 55% 29.98 in 6.2 mi SW 6.9 mph - N/A   Partly Cloudy
5:00 PM 64 °F 47 °F 43% 29.99 in 10 mi SSW 4.5 mph - -   Scattered Clouds
5:25 PM 62.6 °F 46.4 °F 55% 29.98 in 6.2 mi SW 6.9 mph - N/A   Scattered Clouds
5:55 PM 62.6 °F 46.4 °F 55% 29.98 in 6.2 mi WSW 3.5 mph - N/A   Mostly Cloudy
6:00 PM 62 °F 46 °F 45% 29.99 in 10 mi West 4.5 mph - -   Scattered Clouds
6:25 PM 64.4 °F 46.4 °F 52% 29.98 in 6.2 mi West 2.3 mph - N/A   Overcast
6:55 PM 60.8 °F 44.6 °F 55% 29.98 in 6.2 mi West 5.8 mph - N/A   Unknown
7:00 PM 60 °F 46 °F 50% 30.00 in 8 mi West 6.7 mph - -   Scattered Clouds
7:25 PM 60.8 °F 44.6 °F 55% 29.98 in 6.2 mi West 3.5 mph - N/A   Scattered Clouds
7:55 PM 59.0 °F 44.6 °F 59% 29.98 in 6.2 mi West 3.5 mph - N/A   Unknown
8:00 PM 58 °F 44 °F 50% 30.01 in 7 mi West 2.2 mph - -   Partly Cloudy
8:25 PM 53.6 °F 44.6 °F 72% 30.01 in 6.2 mi WSW 2.3 mph - N/A   Unknown
8:55 PM 51.8 °F 44.6 °F 76% 30.01 in 6.2 mi SW 2.3 mph - N/A   Unknown
9:00 PM 53 °F 44 °F 64% 30.03 in 6 mi 2.2 mph - -  
9:25 PM 50.0 °F 44.6 °F 82% 30.01 in 5.6 mi WNW 1.2 mph - N/A   Haze
9:55 PM 48.2 °F 42.8 °F 82% 30.01 in 5.6 mi West 1.2 mph - N/A   Mist
10:00 PM 50 °F 44 °F 72% 30.04 in 6 mi 2.2 mph - -   Mist
10:17 PM 48.2 °F 42.8 °F 82% 30.04 in 4.3 mi Calm Calm - N/A   Mist
10:25 PM 48.2 °F 42.8 °F 82% 30.01 in 4.3 mi SSW 1.2 mph - N/A   Mist
10:32 PM 48.2 °F 42.8 °F 82% 30.01 in 5.0 mi SSW 1.2 mph - N/A   Mist
10:36 PM 48.2 °F 42.8 °F 82% 30.01 in 3.7 mi SSW 1.2 mph - N/A   Mist
10:55 PM 48.2 °F 44.6 °F 87% 30.01 in 4.3 mi South 2.3 mph - N/A   Mist
11:00 PM 47 °F 44 °F 84% 30.03 in 4 mi SSE 2.2 mph - -   Mist
11:25 PM 46.4 °F 42.8 °F 87% 30.01 in 3.7 mi SSE 1.2 mph - N/A   Mist
11:55 PM 44.6 °F 42.8 °F 93% 30.01 in 3.1 mi SSE 2.3 mph - N/A   Mist